When you browse on this site, cookies collect data to enhance your experience and personalize the content and advertising you see.
Visit our Privacy Policy to learn more. By continuing to use the site, you agree to this use of cookies and data.
  • In Sweden
  • List of Countries
  • For 7 days
  • Water Temperature
  • Weather Map
  • Weather Widgets
  • user-avatar
    Login

    Hourly Weather Kurytyba

    Today, 3 April, Friday

    Time Temperature Precipitation Wind Pressure Humidity
    00:00 +20°C° 0.1 mm 2 mps 678 mmHg 91%
    01:00 +19°C° 0 mm 2 mps 677 mmHg 91%
    02:00 +18°C° 0 mm 2 mps 677 mmHg 90%
    03:00 +18°C° 0 mm 2 mps 677 mmHg 90%
    04:00 +16°C° 0 mm 3 mps 676 mmHg 86%
    05:00 +14°C° 0 mm 3 mps 676 mmHg 81%
    06:00 +12°C° 0 mm 3 mps 676 mmHg 76%
    07:00 +13°C° 0 mm 4 mps 676 mmHg 68%
    08:00 +14°C° 0 mm 4 mps 677 mmHg 59%
    09:00 +14°C° 0 mm 4 mps 678 mmHg 50%
    10:00 +17°C° 0 mm 4 mps 678 mmHg 44%
    11:00 +19°C° 0 mm 4 mps 678 mmHg 38%
    12:00 +21°C° 0 mm 3 mps 679 mmHg 32%
    13:00 +22°C° 0 mm 3 mps 678 mmHg 33%
    14:00 +22°C° 0 mm 3 mps 678 mmHg 35%
    15:00 +24°C° 0 mm 3 mps 678 mmHg 37%
    16:00 +21°C° 0 mm 3 mps 678 mmHg 44%
    17:00 +20°C° 0 mm 2 mps 678 mmHg 51%
    18:00 +18°C° 0 mm 2 mps 678 mmHg 59%
    19:00 +17°C° 0 mm 2 mps 678 mmHg 63%
    20:00 +15°C° 0 mm 2 mps 678 mmHg 68%
    21:00 +14°C° 0 mm 2 mps 679 mmHg 73%
    22:00 +13°C° 0 mm 2 mps 679 mmHg 76%
    23:00 +13°C° 0 mm 1 mps 679 mmHg 79%

    Tomorrow, 4 April, Saturday

    Time Temperature Precipitation Wind Pressure Humidity
    00:00 +12°C° 0 mm 1 mps 679 mmHg 83%
    01:00 +12°C° 0 mm 1 mps 679 mmHg 83%
    02:00 +12°C° 0 mm 1 mps 678 mmHg 84%
    03:00 +10°C° 0 mm 0 mps 678 mmHg 85%
    04:00 +10°C° 0 mm 0 mps 678 mmHg 87%
    05:00 +10°C° 0 mm 0 mps 678 mmHg 88%
    06:00 +10°C° 0 mm 0 mps 678 mmHg 90%
    07:00 +12°C° 0 mm 0 mps 679 mmHg 80%
    08:00 +16°C° 0 mm 1 mps 681 mmHg 71%
    09:00 +19°C° 0 mm 1 mps 682 mmHg 61%
    10:00 +21°C° 0 mm 1 mps 682 mmHg 53%
    11:00 +23°C° 0 mm 1 mps 682 mmHg 45%
    12:00 +25°C° 0 mm 1 mps 682 mmHg 37%
    13:00 +25°C° 0 mm 1 mps 681 mmHg 37%
    14:00 +26°C° 0 mm 1 mps 681 mmHg 36%
    15:00 +26°C° 0 mm 1 mps 681 mmHg 35%
    16:00 +24°C° 0 mm 1 mps 680 mmHg 45%
    17:00 +22°C° 0 mm 1 mps 680 mmHg 55%
    18:00 +19°C° 0 mm 2 mps 679 mmHg 66%
    19:00 +18°C° 0 mm 2 mps 680 mmHg 75%
    20:00 +16°C° 0 mm 2 mps 680 mmHg 84%
    21:00 +15°C° 0 mm 2 mps 681 mmHg 93%
    22:00 +15°C° 0 mm 2 mps 681 mmHg 92%
    23:00 +15°C° 0 mm 2 mps 681 mmHg 92%

    Day after tomorrow, 5 April, Sunday

    Time Temperature Precipitation Wind Pressure Humidity
    00:00 +15°C° 0 mm 2 mps 681 mmHg 91%
    01:00 +15°C° 0 mm 1 mps 681 mmHg 90%
    02:00 +15°C° 0 mm 1 mps 681 mmHg 89%
    03:00 +15°C° 0 mm 1 mps 681 mmHg 88%
    04:00 +15°C° 0 mm 1 mps 681 mmHg 87%
    05:00 +15°C° 0 mm 1 mps 681 mmHg 87%
    06:00 +15°C° 0 mm 1 mps 681 mmHg 87%
    07:00 +16°C° 0 mm 1 mps 682 mmHg 80%
    08:00 +19°C° 0 mm 1 mps 682 mmHg 74%
    09:00 +20°C° 0 mm 1 mps 683 mmHg 67%
    10:00 +22°C° 0 mm 1 mps 683 mmHg 58%
    11:00 +25°C° 0 mm 1 mps 683 mmHg 48%
    12:00 +27°C° 0 mm 1 mps 683 mmHg 39%
    13:00 +27°C° 0 mm 1 mps 683 mmHg 37%
    14:00 +28°C° 0 mm 1 mps 682 mmHg 36%
    15:00 +28°C° 0 mm 1 mps 682 mmHg 34%
    16:00 +26°C° 0 mm 1 mps 682 mmHg 46%
    17:00 +24°C° 0 mm 1 mps 681 mmHg 57%
    18:00 +21°C° 0 mm 1 mps 680 mmHg 69%
    19:00 +20°C° 0 mm 1 mps 681 mmHg 77%
    20:00 +19°C° 0 mm 1 mps 681 mmHg 85%
    21:00 +18°C° 0 mm 1 mps 681 mmHg 92%
    22:00 +18°C° 0 mm 1 mps 682 mmHg 93%
    23:00 +16°C° 0 mm 1 mps 682 mmHg 94%

    6 April, Monday

    Time Temperature Precipitation Wind Pressure Humidity
    00:00 +16°C° 0 mm 1 mps 682 mmHg 94%
    01:00 +16°C° 0 mm 1 mps 681 mmHg 94%
    02:00 +16°C° 0 mm 1 mps 681 mmHg 94%
    03:00 +15°C° 0 mm 1 mps 681 mmHg 94%
    04:00 +14°C° 0 mm 0 mps 681 mmHg 94%
    05:00 +14°C° 0 mm 0 mps 681 mmHg 93%
    06:00 +14°C° 0 mm 0 mps 681 mmHg 93%
    07:00 +18°C° 0 mm 1 mps 681 mmHg 83%
    08:00 +20°C° 0 mm 1 mps 682 mmHg 74%
    09:00 +23°C° 0 mm 1 mps 682 mmHg 64%
    10:00 +25°C° 0 mm 1 mps 682 mmHg 57%
    11:00 +27°C° 0 mm 1 mps 682 mmHg 50%
    12:00 +29°C° 0 mm 2 mps 682 mmHg 42%
    13:00 +28°C° 0 mm 2 mps 682 mmHg 47%
    14:00 +27°C° 0 mm 2 mps 681 mmHg 51%
    15:00 +26°C° 0 mm 2 mps 681 mmHg 55%
    16:00 +24°C° 0.2 mm 2 mps 681 mmHg 65%
    17:00 +21°C° 0.2 mm 2 mps 681 mmHg 75%
    18:00 +19°C° 0.2 mm 2 mps 680 mmHg 85%
    19:00 +19°C° 2.5 mm 2 mps 680 mmHg 89%
    20:00 +19°C° 2.5 mm 1 mps 681 mmHg 92%
    21:00 +19°C° 2.5 mm 1 mps 681 mmHg 95%
    22:00 +19°C° 0.1 mm 1 mps 681 mmHg 95%
    23:00 +17°C° 0.1 mm 0 mps 681 mmHg 94%

    7 April, Tuesday

    Time Temperature Precipitation Wind Pressure Humidity
    00:00 +17°C° 0.1 mm 0 mps 681 mmHg 94%
    01:00 +17°C° 0 mm 0 mps 681 mmHg 94%
    02:00 +18°C° 0 mm 1 mps 681 mmHg 94%
    03:00 +18°C° 0 mm 1 mps 680 mmHg 94%
    04:00 +18°C° 0 mm 1 mps 680 mmHg 94%
    05:00 +18°C° 0 mm 1 mps 681 mmHg 95%
    06:00 +16°C° 0 mm 1 mps 681 mmHg 95%
    07:00 +18°C° 0 mm 1 mps 681 mmHg 92%
    08:00 +19°C° 0 mm 1 mps 682 mmHg 90%
    09:00 +19°C° 0 mm 2 mps 683 mmHg 87%
    10:00 +20°C° 0 mm 2 mps 683 mmHg 81%
    11:00 +21°C° 0 mm 2 mps 683 mmHg 75%
    12:00 +23°C° 0 mm 2 mps 683 mmHg 68%
    13:00 +21°C° 0.1 mm 2 mps 683 mmHg 74%
    14:00 +20°C° 0.1 mm 2 mps 682 mmHg 79%
    15:00 +20°C° 0.1 mm 2 mps 681 mmHg 85%
    16:00 +19°C° 0.1 mm 2 mps 681 mmHg 87%
    17:00 +18°C° 0.1 mm 2 mps 682 mmHg 90%
    18:00 +17°C° 0.1 mm 2 mps 682 mmHg 92%
    19:00 +17°C° 0 mm 2 mps 682 mmHg 92%
    20:00 +16°C° 0 mm 2 mps 682 mmHg 92%
    21:00 +16°C° 0 mm 2 mps 683 mmHg 92%
    22:00 +16°C° 0 mm 2 mps 683 mmHg 92%
    23:00 +16°C° 0 mm 2 mps 683 mmHg 91%

    8 April, Wednesday

    Time Temperature Precipitation Wind Pressure Humidity
    00:00 +16°C° 0 mm 2 mps 683 mmHg 91%
    01:00 +15°C° 0 mm 1 mps 683 mmHg 91%
    02:00 +15°C° 0 mm 1 mps 682 mmHg 91%
    03:00 +15°C° 0 mm 1 mps 682 mmHg 91%
    04:00 +15°C° 0 mm 1 mps 682 mmHg 91%
    05:00 +14°C° 0 mm 1 mps 682 mmHg 91%
    06:00 +14°C° 0 mm 1 mps 682 mmHg 91%
    07:00 +15°C° 0 mm 1 mps 682 mmHg 86%
    08:00 +16°C° 0 mm 1 mps 683 mmHg 81%
    09:00 +18°C° 0 mm 1 mps 683 mmHg 76%
    10:00 +20°C° 0 mm 1 mps 683 mmHg 68%
    11:00 +20°C° 0 mm 0 mps 683 mmHg 59%
    12:00 +21°C° 0 mm 0 mps 684 mmHg 51%
    13:00 +24°C° 0 mm 1 mps 683 mmHg 49%
    14:00 +24°C° 0 mm 1 mps 683 mmHg 47%
    15:00 +25°C° 0 mm 2 mps 682 mmHg 45%
    16:00 +21°C° 0 mm 2 mps 682 mmHg 57%
    17:00 +19°C° 0 mm 2 mps 681 mmHg 69%
    18:00 +17°C° 0 mm 2 mps 681 mmHg 80%
    19:00 +16°C° 0 mm 2 mps 681 mmHg 83%
    20:00 +15°C° 0 mm 2 mps 681 mmHg 86%
    21:00 +15°C° 0 mm 2 mps 681 mmHg 89%
    22:00 +14°C° 0 mm 2 mps 682 mmHg 88%
    23:00 +14°C° 0 mm 2 mps 682 mmHg 87%
    Show more